Погода Преображение

Погода Преображение : погода сейчас, прогноз погоды и архив. Всё, что Вы хотите узнать о погоде Преображение!

Хотите узнать прогноз погоды Преображение? Тогда Вам сюда: Погода Преображение

Поиск расширенной информации на нашем сайте:

Другие новости

Новости СМИ2

Главная страница сайта

Новости сайта

02.10.2013

Напоминаем, что на нашем новом сайте вы можете получить высокодетализированные прогнозы погоды по пунктам России, СНГ и мира (включающие важные для авиации метеовеличины, такие как направление и скорость ветра, видимость, явления погоды, количество и форма облачности, нижняя и верхняя граница облачности), а также ознакомиться с разнообразными материалами по авиационной метеорологии и подборкой полезных ссылок на эту тему.

Сайт Метеоцентр.Азия посвящён разработке технологий оптимизации авиаметеорологического обслуживания, включая проектирование и перспективное создание нескольких автоматизированных авиаметеорологических систем:
- система выпуска высокодетальных прогностических карт явлений погоды для нижнего воздушного пространства по России и ближнему зарубежью;
- система верификации прогнозов TAF (выпускаемых синоптиками официальных АМСГ РФ и ближнего зарубежья) и AUTOTAF (выпускаемых сайтом Метеоцентр.Азия) - выявление ошибок, онлайн-сопоставление с фактической погодой METAR, автоматическое внесение коррективов в прогнозы при резком отклонении фактической погоды от прогноза, подсчёт оправдываемости прогнозов по элементам и в целом;
- система обработки, анализа и отображения авиаметеорологической информации для применения провайдерами метеорологической информации.

Рекомендуем: Правильная регулировка пластикового окна.

Погода Преображение - сегодня

Время (UTC), дата Ветер
(°,м/с) 
Видим.   Явления Облачность Т
(°С)
Тd
(°С)
f(%) Тe
(°С)
Pmin
(гПа)
dP
(гПа)
Po
(мм)
O2
(г/м3)
Тmin Tmax R s Состояние
почвы
18 23.05.17 020 (С) 20000 м    ясно 
+6 +5.2 95 +5  1008.2  -1  752  296           
21 23.05.17 010 (С) 20000 м    ясно 
+8.7 +6.2 84 +10  1007.5  -0.6  752  293  +4.6        влажная 
00 24.05.17 210 (ЮЗ) 20000 м    ясно 
+9.3 +6.8 84 +9  1007.2  -0.4  752  292           
03 24.05.17 210 (ЮЗ) 0500 м  туман  4/4 600 м 
[Cu hum]
+11.1 +9.1 87 +11  1007.2  752  289           
06 24.05.17 230 (ЮЗ) 1{10}  0500 м  туман  1/1 600 м 
[Cu hum]
+12.2 +10.2 88 +14  1005.9  -1.2  751  288           
09 24.05.17 200 (Ю) 0500 м  туман  ясно 
+8.9 +8.8 99 +9  1007.7  1.7  752  292    +13.6       
12 24.05.17 тихо ()   0500 м  туман  ?/?  
+9.2 +9.2 100 +9  1010  2.3  754  292           
15 24.05.17 020 (С) 0500 м  туман{ливн. осадки}  ?/?  
+9.2 +9.2 100 +8  1010.2  0.2  754  292           
18 24.05.17 110 (В) 20000 м  {ливн. осадки, туман}  10/10 600 м 
[Sc]
+8.1 +7.6 97 +8  1009.5  -0.7  753  293           
21 24.05.17 080 (В) 20000 м  {ливн. осадки}  9/9 600 м 
[Sc]
+8.6 +8 96 +9  1009.6  0.1  753  293  +7.6    0.8    влажная 
00 25.05.17 090 (В) 3{10}  20000 м  {ливн. осадки}  9/9 600 м 
[Sc]
+8.1 +5.8 85 +7  1010.3  0.6  754  294           
03 25.05.17 070 (В) 4{11}  20000 м    10/5 600 м средняя 
[Sc|Ac trans]
+10 +4 66 +9  1009.9  -0.3  754  292           
06 25.05.17 110 (В) 4{16}  20000 м    9/9 600 м 
[Sc]
+8.2 +4.8 79 +7  1009.5  -0.4  753  294           
09 25.05.17 070 (В) 5-11{14}  20000 м    8/3 600 м средняя 
[Sc|Ac trans]
+8.8 +4.1 72 +7  1007.9  -1.6  752  293    +11.5       
12 25.05.17 080 (В) 2{13}  20000 м    9/0 средняя 
[Ac As]
+7.1 +4.3 82 +7  1009.6  1.7  753  295           
15 25.05.17 130 (ЮВ) 20000 м    10/3 300 м средняя 
[St|Ac trans]
+6.4 +4.2 86 +6  1008.9  -0.8  753  296           
18 25.05.17 060 (СВ) 4{11}  20000 м    5/0 верхняя 
[Ci fib]
+12.2 -2.9 35 +12  1006.8  -2  751  290           
21 25.05.17 090 (В) 20000 м    5/0 верхняя 
[Cs]
+8.8 +2.8 66 +8  1006.8  751  293  +6        влажная 
00 26.05.17 090 (В) 6-12{12}  20000 м    10/10 300 м 
[Sc]
+8.3 +4 74 +6  1007.8  752  293           
03 26.05.17 100 (В) 6-13{13}  20000 м  {дождь}  10/9 600 м средняя 
[Sc|As trans]
+9.1 +4.7 74 +7  1007.6  -0.2  752  292           
06 26.05.17 220 (ЮЗ) 1{13}  20000 м  {ливн. осадки, дождь}  10/10 600 м 
[Sc]
+8.1 +5.5 84 +9  1007.5  -0.1  752  293           
09 26.05.17 тихо ()   20000 м  в посл. час гроза{ливн. осадки}  10/10 600 м кучево-дожд. 
[Cb cap]
+8 +5.9 87 +8  1007.7  0.2  752  293    +11.1  0.4     
12 26.05.17 110 (В) 20000 м  {гроза, ливн. осадки}  10/10 600 м 
[Sc]
+6.2 +4.8 91 +7  1008.9  1.1  753  296           
15 26.05.17 110 (В) 20000 м    10/10 600 м 
[Sc]
+7.2 +4.5 83 +8  1008.3  -0.5  752  295           
18 26.05.17 100 (В) 20000 м    10/9 600 м средняя 
[Sc|Ac und]
+7.1 +4.2 82 +8  1007.1  -1.2  751  294           
Время (UTC), дата Ветер
(°,м/с) 
Видим.   Явления Облачность Т
(°С)
Тd
(°С)
f(%) Тe
(°С)
Pmin
(гПа)
dP
(гПа)
Po
(мм)
O2
(г/м3)
Тmin Tmax R s Состояние
почвы

Для получения пояснительной информации подведите курсор к названию столбца.

ПОГОДА Преображение - архив

Всё, что Вы хотите узнать о погоде Преображение - удобно и подробно!

Выберите нужную дату (начиная с 1 января 2015* года) и нажмите кнопку "Найти".
Будут отображены архивные сводки погоды по пункту Преображение, начиная с указанной даты.


Отображать данные в формате CSV (для использования в таблицах Excel)


Внимание! Наш архив погоды предназначен исключительно для личного некоммерческого использования в познавательных целях. Если Вам необходимы официальные справки о состоянии погоды (для производственных, юридических, коммерческих и т.п. целей), обращайтесь в органы Росгидромета.

*Примечание: данная дата относится к архиву по метеостанциям СССР (Россия, СНГ, Балтия).
Архив по метеостанциям Зарубежной Европы и Азии (кроме Китая) хранится 10 дней, по другим регионам земного шара (Китай, Африка, Америка, Австралия, Океания) - 1 день.

Преображение - район местоположения метеостанции


Название, широта, долгота, высота метеостанции:
Преображение 42.9°ш. 133.9°д. 43 м над ур. моря [Российская Федерация]

Дополнительная информация

В oтличие oт бoльшинства пoгoдных сайтoв мы публикуем пoдрoбную метеoинфoрмацию в детальнoм прoфессиoнальнoм фoрмате.

Характеристики температуры и влажнoсти вoздуха измеряются на высoте 2 м в тени вдали oт зданий и деревьев.
Скoрoсть ветра измеряется на высoте 10 м (на урoвне рoста челoвека скoрoсть ветра ниже в 1.5-2 раза). Если метеoстанция нахoдится в гoрoде или в лесу, тo скoрoсть ветра занижена на 2-4 м/с пo сравнению с oткрытым местoм. Скoрoсть ветра над акватoриями крупных рек и oзёр, а также на вершинах хoлмoв на 2-5 м/с выше, чем в oбычных услoвиях.
Атмoсфернoе давление в разных тoчках местнoсти мoжет значительнo oтличаться oт давления на метеoстанции, в зависимoсти oт услoвий рельефа (при пoдъёме на 10 м давление пoнижается примернo на 1 мм рт.ст.).